Regional Weather Roundup
Issued by NWS Wakefield, VA

Home | Current Version | Previous Version | Text Only | Print | Product List | Glossary Off
Versions: 1 2 3 4 5 6 7 8 9 10 11 12 13 14 15 16 17 18 19 20 21 22 23 24 25 26 27

000
ASUS41 KAKQ 162015
RWRAKQ

REGIONAL WEATHER ROUNDUP
NATIONAL WEATHER SERVICE WAKEFIELD VA
300 PM EST SAT DEC 16 2017

Note: "fair" indicates few or no clouds below 12,000 feet with no
significant weather and/or obstructions to visibility. * = Denotes
station may not report precipitation (e.g., rain,snow,etc.),
thunder or fog.

VAZ042-051-052>054-056-162100-
NORTHERN VIRGINIA

CITY           SKY/WX    TMP DP  RH WIND       PRES   REMARKS
WASH NATIONAL  MOSUNNY   47  24  40 S13       30.09S
DULLES         MOSUNNY   45  22  40 SW14G22   30.07S
FORT BELVOIR   SUNNY     47  22  36 S9        30.09S
QUANTICO       SUNNY     48  22  35 SW10G17   30.12R
FREDERICKSBRG* SUNNY     48  25  40 SW9       30.10S
STAFFORD*      SUNNY     48  22  36 SW10G16   30.14R
WARRENTON      SUNNY     49  17  28 SW12      30.08S
CULPEPER*      SUNNY     49  20  32 S10       30.09S
MANASSAS*      SUNNY     47  22  37 SW13      30.08F
LEESBURG*      SUNNY     46  27  46 S8        30.07S
WINCHESTER     SUNNY     46  23  39 SW10      30.03S
FRONT ROYAL*   CLEAR     46  23  39 MISG      30.03S
LURAY*         CLEAR     48  25  40 S10       30.04S
$$

VAZ048-049-060>072-079>083-162100-
CENTRAL AND SOUTH CENTRAL VIRGINIA

CITY           SKY/WX    TMP DP  RH WIND       PRES   REMARKS
RICHMOND       MOSUNNY   52  22  30 SW10      30.13F
CHESTERFIELD*  NOT AVBL
PETERSBURG*    SUNNY     48  19  32 SW10      30.15S
HANOVER        SUNNY     49  22  34 SW7       30.14S
TAPPAHANNOCK*  SUNNY     48  23  36 SW9       30.14R
QUINTON*       FAIR      47  21  36 S6        30.13S
CHARLOTTSVILLE SUNNY     51  23  33 S13       30.07S
GORDONSVILLE*  CLEAR     48  24  38 S12       30.08S
ORANGE*        SUNNY     46  23  39 S9        30.09S
LOUISA*        SUNNY     48  21  35 SW9       30.14S
BUMPASS*       FAIR      47  19  33 SW8       30.11S
FARMVILLE*     SUNNY     49  26  41 SW10G16   30.12R
CREWE*         FAIR      47  24  39 SW8       30.14S
FORT PICKETT*  NOT AVBL
CHASE CITY*    FAIR      47  25  41 SW3       30.15F
CLARKSVILLE*   FAIR      48  25  40 W6        30.16S
SOUTH HILL*    SUNNY     47  25  41 SW9       30.22S
LAWRENCEVILLE* FAIR      48  22  35 SW10      30.15S
EMPORIA*       SUNNY     46  23  39 SW9       30.18S
$$

VAZ088>098-162100-
SOUTHEAST VIRGINIA

CITY           SKY/WX    TMP DP  RH WIND       PRES   REMARKS
NORFOLK        SUNNY     48  20  32 SW12G18   30.15S
VIRGINIA BEACH MOSUNNY   46  18  32 SW10      30.16S
NORFOLK NAVAL  MOSUNNY   47  20  34 SW12      30.17S
WEST POINT*    SUNNY    N/A N/A N/A SW10      30.16S
SALUDA*        FAIR      46  22  38 SW7       30.14S
NEWPORT NEWS   SUNNY     47  23  38 SW13      30.16S
LANGLEY AFB    SUNNY     46  22  38 SW9G17    30.15S
FORT EUSTIS    SUNNY     47  24  39 S8        30.13S
WILLIAMSBURG*  SUNNY     50  25  37 CALM      30.16S
HR EXEC AP*    FAIR      47  21  35 SW10      30.17S
FRANKLIN*      SUNNY     47  22  37 SW8       30.17F
US460-WAKEFLD  SUNNY     47  22  37 SW9       30.15F
$$

VAZ020-022-025-037-045-162100-
WEST CENTRAL AND SOUTHWEST VIRGINIA

CITY           SKY/WX    TMP DP  RH WIND       PRES   REMARKS
STAUNTON*      SUNNY     47  24  41 SW14G21   30.07R
WAYNESBORO*    CLEAR     46  24  40 SW14G20   30.06S
HOT SPRINGS VA SUNNY     38  20  48 W17G26    30.02R
LYNCHBURG      SUNNY     47  23  38 SW12G22   30.11S
DANVILLE       SUNNY     49  24  37 SW14      30.16F
SOUTH BOSTON*  FAIR      49  21  32 SW8       30.16F
MARTINSVILLE   SUNNY     49  23  36 SW5       30.17S
ROANOKE        MOSUNNY   50  25  37 SW12      30.13S
BLACKSBURG     SUNNY     45  25  45 SW8       30.14R
DUBLIN*        SUNNY     46  25  44 SW15      30.13S
MARION*        SUNNY     42  21  44 W15       30.15F
HILLSVILLE*    SUNNY     45  22  39 NW6       30.10S
RICHLANDS*     FAIR      40  24  51 W7        30.14S
WISE*          SUNNY     43  28  56 SW13      30.14F
ABINGDON*      SUNNY     44  26  50 W10       30.17S
$$

MDZ021>025-VAZ099-100-162100-
SOUTHERN MARYLAND AND THE DELMARVA PENINSULA

CITY           SKY/WX    TMP DP  RH WIND       PRES   REMARKS
PATUXENT RIVER CLOUDY    45  21  38 SW14      30.11F
BAY BRIDGE APT SUNNY     45  27  49 S12       30.08F
LEONARDTOWN    SUNNY     45  23  42 S9G16     30.12F
DOVER          CLOUDY    42  28  58 SW10      30.07F
GEORGETOWN     MOSUNNY   44  25  47 SW17      30.10F
EASTON         MOSUNNY   45  23  42 SW13G20   30.13S
CAMBRIDGE      MOSUNNY   45  23  42 SW8       30.11F
SALISBURY      MOSUNNY   42  24  49 SW13G18   30.12S
OCEAN CITY     SUNNY     43  23  45 SW12      30.12F
WALLOPS ISLAND SUNNY     45  24  43 W8        30.14S
ACCOMACK*      SUNNY     45  24  43 SW9       30.14F
$$

NCZ012>017-030>032-162100-
NORTH CENTRAL AND EASTERN NORTH CAROLINA

CITY           SKY/WX    TMP DP  RH WIND       PRES   REMARKS
ROANOKE RAPIDS FAIR      50  25  37 W8        30.17F
RALEIGH        MOSUNNY   49  22  34 W9        30.20F
ELIZABETH CITY SUNNY     46  27  47 SW8       30.19S
AHOSKIE*       SUNNY     47  23  38 CALM      30.19S
EDENTON*       SUNNY     47  24  40 SW5       30.20S
CURRITUCK*     SUNNY     46  22  39 SW7       30.18F
KILL DEVIL HLS SUNNY     43  19  38 CALM      30.18F
MANTEO         SUNNY     44  21  40 NW5       30.20F
CAPE HATTERAS  SUNNY     44  25  47 W7        30.23R
TARBORO*       NOT AVBL
GOLDSBORO      SUNNY     51  23  33 SW3       30.20S
WASHINGTON     SUNNY     49  22  35 W6        30.21F
GREENVILLE     SUNNY     48  25  40 W6        30.21F
NEW BERN       SUNNY     49  25  39 W7        30.22F
WILMINGTON     SUNNY     53  24  32 W6        30.23F
$$

VAZ048-162100-
ELSEWHERE

CITY           SKY/WX    TMP DP  RH WIND       PRES   REMARKS
HARRISBURG PA  CLOUDY    42  25  50 SW12      30.00S
BALTIMORE      MOSUNNY   45  23  42 SW10      30.06S
ANNAPOLIS      MOSUNNY   46  24  42 VRB6      30.08S
ANDREWS AFB    SUNNY     46  22  39 SW10      30.07S
PHILADELPHIA   PTSUNNY   42  24  49 SW15      30.05S
HENDERSON NC   SUNNY     47  21  35 SW12      30.17F
GREENSBORO     MOSUNNY   47  23  38 SW10G17   30.16F
ROCKY MOUNT    SUNNY     48  24  39 SW6       30.20F
$$

VAZ100-162100-
MARINE

STATION/POSITION TIME  TEMP    WIND        PRES    WAVE   SWELL
                       AIR SEA DIR/SP/G            HT/PER HT/PER
                 (UTC) (F)     (DEG/KT/KT) (MB)    (FT/S) (FT/S)
BRANDYWINE LGT   1942   43     250/ 21/ 23 1018.8F
CAPE MAY NJ      1948   42 39  260/ 13/ 15 1018.2F
LEWES DE         1942   43 40  260/ 11/ 16 1018.7F
15NM E FENWICK I 1950   44 51  230/ 17/ 21 1019.9R   3/ 4   2/ 7
OCEAN-CITY-INLET 1942   43 42  250/ 11/ 13 1020.2F
WACHAPREAGUE VA  1942   45 39  230/  7/ 10 1020.9R
THOMAS POINT MD  2000   44 44  210/ 15/ 16   N/A
GOOSES REEF MD   2000   45 45  210/ 14/ 16 1019.7    1/ 2
COVE POINT MD    1942   44     210/ 16/ 18 1020.0F
SOLOMONS ISLAND  1942   45 44  230/ 15/ 18 1019.3F
BISHOPS HEAD MD  1942   42 37  220/  9/ 11 1020.3F
PINEY POINT MD   1942          240/  3/  6   N/A
POTOMAC MD       2000   46 45  220/ 12/ 12 1019.5    1/ 2
CAMBRIDGE MD     1942   45 40              1020.0F
LEWISETTA VA     1942   45 40  240/ 10/ 13 1020.0F
RAPPAHANNOCK LGT 1942          200/ 12/ 14 1021.4S
STINGRAY PT      2000   45 45  250/ 10/ 14 1020.9    1/ 3
YORK RVR RNG VA  1942   44     220/ 10/ 13 1021.4R
YORKTOWN VA      1942   46 46  240/ 11/ 15 1020.4F
JAMESTOWN VA     2000      44  240/  8/ 10   N/A
DOMINION TERM VA 1942   44     210/ 10/ 12 1021.4F
KIPTOPEKE VA     1942      45  230/ 11/ 13   N/A
CAPE HENRY VA    1942   45     210/  8/ 11   N/A
WILLOUBY STN VA  1942          250/ 10/ 11 1020.9F
S CRANEY ISL VA  1942   46     210/  9/ 12 1021.2R
CAPE HENRY BUOY  2000      52                N/A     2/ 7
1ST LANDING BUOY 2000   45 47  250/ 12/ 16 1021.3    1/ 2
CAPE CHARLES BUO 1921      50                N/A     1/ 6
64NM E OF VA BCH 1950   45 58  250/  8/ 12 1022.2F   3/ 6   3/ 6
DUCK PIER NC     1942   43 52  230/  8/ 10 1021.9F
44100 DUCK FRF   1915      54                N/A     3/ 6
44056 DUCK FRF   2000      54                N/A     2/ 7
OREGON INLET NC  1942   44 48  240/  3/  5 1022.8S
HATTERAS NC      1942   42 52  300/  7/  9 1023.3R
DIAMOND SHLS NC  1950   46 73  280/  8/ 14 1023.5S   3/ 7   3/ 7
CAPE LOOKOUT NC  2000          260/  7/  9 1023.8F
$$




USA.gov is the U.S. government's official web portal to all federal, state and local government web resources and services.